FENGYUN 1C DEB, 30112

Orbit data source: Space-Track

FENGYUN 1C DEB, 30112 is space debris in SSO originally from a launch on Mon, 10 May 1999 UTC launched from the Taiyaun Space Center, China (TSC). Fengyun 1C debris stems from the Chinese weather satellite Fengyun-1C, which was intentionally destroyed by a Chinese anti-satellite missile in 2007. This event dramatically increased the amount of space debris, with thousands of trackable fragments posing hazards to satellites and human spaceflight. The Fengyun 1C debris cloud has become a focal point in discussions about space sustainability and the need for international regulations to prevent the creation of new debris.

Loading next visibility...
Identifier
30112, 1999-025RR
Orbit
SSO
Country
Flag of CNCN / PRC
Related business
Manufacturer
Unknown
Mission
Spacecraft
Bus & Motor
Unknown
Mass
Unknown
Launch date (UTC)
1999-05-10 (26 years ago)
Launch vehicle
Unknown
Launch site
Taiyaun Space Center, China (TSC)
Object type
Payload
Rocket body
Debris
Shape & HBR
Unknown shape, 0.1 m
Radar Cross Section
Small (<0.1 m²)

Expand to show TLE details & history
Last TLE update: 10 hours ago

TLE from 10 hours ago
0 FENGYUN 1C DEB
1 30112U 99025RR  25295.85178052  .00002181  00000-0  82315-3 0  9995
2 30112  99.2751 267.1266 0200466 252.5715 105.3456 14.22038174968590
Epoch: 2025-10-22T20:26Z
TLE epoch observation values (Epoch: 2025-10-22T20:26:33.836Z)
Latitude
-0.00006°
Longitude
-71.03382°
Altitude
862.222 km
Speed
7.4 km/s
True Right ascension
17h 48m 30s
True Declination
0° 00' 00"
Sunlit
Object was in daylight at epoch
Visualization orbit readout
Latitude
Unknown
Longitude
Unknown
Altitude
Unknown
Speed
Unknown
Apparent Right ascension
Unknown
Apparent Declination
Unknown
Sunlit
N/A
Visualization observer readout
Local Sidereal Time
01:14:34
Azimuth
Unknown
Elevation
Unknown
Doppler factor
Unknown
Orbital elements
Apogee altitude
959.861 km
Perigee altitude
671.439 km
Semi-major axis
7,193.787 km
Eccentricity
0.02005
Inclination
99.2751°
RAAN
267.1266°
Arg. of periapsis
252.5715°
True anomaly
107.54573°
Mean anomaly
105.3456°
Eccentric anomaly
106.44719°
Mean motion
3.55719 °/min
Orbital period
101.2 mins
BSTAR
0.00082315
Loading maneuver chart data...
Computing Atmospheric mass density...

Documentation

Showing up to 5 results
|